Previsão horária em Juraszki

Hoje, 22 Junho, Terça-feira

Tempo Temperatura Precipitação Vento Pressão Humidade
00:00 +21°C° 0 mm 2 m/s 746 mmHg 86%
01:00 +20°C° 0 mm 2 m/s 746 mmHg 88%
02:00 +20°C° 0 mm 2 m/s 746 mmHg 90%
03:00 +20°C° 0 mm 2 m/s 746 mmHg 91%
04:00 +20°C° 0 mm 2 m/s 746 mmHg 92%
05:00 +19°C° 0 mm 3 m/s 746 mmHg 92%
06:00 +21°C° 0 mm 3 m/s 746 mmHg 86%
07:00 +23°C° 0 mm 4 m/s 747 mmHg 80%
08:00 +26°C° 0 mm 4 m/s 747 mmHg 73%
09:00 +27°C° 0 mm 4 m/s 747 mmHg 68%
10:00 +28°C° 0 mm 5 m/s 747 mmHg 63%
11:00 +29°C° 0 mm 5 m/s 747 mmHg 57%
12:00 +30°C° 0 mm 5 m/s 747 mmHg 55%
13:00 +30°C° 0 mm 4 m/s 747 mmHg 53%
14:00 +32°C° 0 mm 4 m/s 747 mmHg 51%
15:00 +32°C° 0 mm 4 m/s 747 mmHg 53%
16:00 +31°C° 0 mm 3 m/s 747 mmHg 54%
17:00 +31°C° 0 mm 3 m/s 747 mmHg 56%
18:00 +30°C° 0 mm 3 m/s 747 mmHg 61%
19:00 +28°C° 0 mm 3 m/s 747 mmHg 66%
20:00 +27°C° 0 mm 3 m/s 747 mmHg 71%
21:00 +26°C° 0.1 mm 2 m/s 748 mmHg 75%
22:00 +24°C° 0.1 mm 2 m/s 748 mmHg 79%
23:00 +23°C° 0.1 mm 2 m/s 748 mmHg 83%

Amanhã, 23 Junho, Quarta-feira

Tempo Temperatura Precipitação Vento Pressão Humidade
00:00 +23°C° 0 mm 2 m/s 748 mmHg 85%
01:00 +22°C° 0 mm 1 m/s 748 mmHg 87%
02:00 +22°C° 0 mm 1 m/s 748 mmHg 89%
03:00 +22°C° 0 mm 1 m/s 748 mmHg 89%
04:00 +22°C° 0 mm 1 m/s 748 mmHg 90%
05:00 +22°C° 0 mm 1 m/s 749 mmHg 90%
06:00 +23°C° 0 mm 1 m/s 749 mmHg 86%
07:00 +24°C° 0 mm 1 m/s 749 mmHg 81%
08:00 +26°C° 0 mm 1 m/s 750 mmHg 77%
09:00 +26°C° 0.7 mm 2 m/s 750 mmHg 75%
10:00 +27°C° 0.7 mm 2 m/s 750 mmHg 74%
11:00 +28°C° 0.7 mm 2 m/s 750 mmHg 72%
12:00 +28°C° 0.4 mm 2 m/s 750 mmHg 70%
13:00 +29°C° 0.4 mm 1 m/s 750 mmHg 67%
14:00 +29°C° 0.4 mm 1 m/s 750 mmHg 64%
15:00 +29°C° 0.4 mm 2 m/s 750 mmHg 65%
16:00 +29°C° 0.4 mm 2 m/s 750 mmHg 67%
17:00 +29°C° 0.4 mm 2 m/s 750 mmHg 68%
18:00 +28°C° 0.7 mm 2 m/s 750 mmHg 75%
19:00 +26°C° 0.7 mm 2 m/s 751 mmHg 81%
20:00 +25°C° 0.7 mm 2 m/s 751 mmHg 88%
21:00 +24°C° 1.2 mm 2 m/s 751 mmHg 91%
22:00 +23°C° 1.2 mm 2 m/s 751 mmHg 94%
23:00 +21°C° 1.2 mm 2 m/s 751 mmHg 96%

Depois de amanhã, 24 Junho, Quinta-feira

Tempo Temperatura Precipitação Vento Pressão Humidade
00:00 +21°C° 0.4 mm 2 m/s 751 mmHg 97%
01:00 +20°C° 0.4 mm 2 m/s 751 mmHg 97%
02:00 +20°C° 0.4 mm 2 m/s 751 mmHg 97%
03:00 +20°C° 0.6 mm 2 m/s 751 mmHg 97%
04:00 +20°C° 0.6 mm 2 m/s 751 mmHg 97%
05:00 +20°C° 0.6 mm 2 m/s 751 mmHg 97%
06:00 +21°C° 0 mm 2 m/s 751 mmHg 94%
07:00 +23°C° 0 mm 2 m/s 751 mmHg 91%
08:00 +24°C° 0 mm 2 m/s 751 mmHg 87%
09:00 +25°C° 0 mm 1 m/s 751 mmHg 80%
10:00 +27°C° 0 mm 1 m/s 751 mmHg 73%
11:00 +27°C° 0 mm 0 m/s 751 mmHg 66%
12:00 +30°C° 0.3 mm 1 m/s 751 mmHg 63%
13:00 +30°C° 0.3 mm 1 m/s 750 mmHg 60%
14:00 +31°C° 0.3 mm 1 m/s 750 mmHg 57%
15:00 +31°C° 0.1 mm 2 m/s 750 mmHg 59%
16:00 +30°C° 0.1 mm 3 m/s 749 mmHg 61%
17:00 +30°C° 0.1 mm 3 m/s 749 mmHg 64%
18:00 +28°C° 0.9 mm 3 m/s 749 mmHg 71%
19:00 +26°C° 0.9 mm 2 m/s 750 mmHg 79%
20:00 +24°C° 0.9 mm 2 m/s 750 mmHg 87%
21:00 +23°C° 0 mm 2 m/s 750 mmHg 87%
22:00 +22°C° 0 mm 1 m/s 750 mmHg 88%
23:00 +21°C° 0 mm 1 m/s 749 mmHg 88%

25 Junho, Sexta-feira

Tempo Temperatura Precipitação Vento Pressão Humidade
00:00 +20°C° 0.1 mm 2 m/s 749 mmHg 89%
01:00 +20°C° 0.1 mm 2 m/s 749 mmHg 90%
02:00 +19°C° 0.1 mm 3 m/s 749 mmHg 91%
03:00 +19°C° 0 mm 3 m/s 749 mmHg 91%
04:00 +19°C° 0 mm 3 m/s 749 mmHg 91%
05:00 +19°C° 0 mm 3 m/s 748 mmHg 91%
06:00 +20°C° 0.3 mm 2 m/s 748 mmHg 88%
07:00 +21°C° 0.3 mm 2 m/s 748 mmHg 85%
08:00 +24°C° 0.3 mm 2 m/s 748 mmHg 82%
09:00 +26°C° 0.2 mm 3 m/s 748 mmHg 77%
10:00 +28°C° 0.2 mm 3 m/s 747 mmHg 72%
11:00 +30°C° 0.2 mm 4 m/s 747 mmHg 67%
12:00 +30°C° 0.4 mm 5 m/s 747 mmHg 65%
13:00 +32°C° 0.4 mm 5 m/s 747 mmHg 63%
14:00 +33°C° 0.4 mm 5 m/s 746 mmHg 60%
15:00 +32°C° 0.7 mm 6 m/s 746 mmHg 66%
16:00 +29°C° 0.7 mm 6 m/s 746 mmHg 71%
17:00 +28°C° 0.7 mm 6 m/s 746 mmHg 76%
18:00 +27°C° 0.3 mm 5 m/s 746 mmHg 80%
19:00 +25°C° 0.3 mm 4 m/s 747 mmHg 83%
20:00 +22°C° 0.3 mm 4 m/s 747 mmHg 87%
21:00 +21°C° 0 mm 4 m/s 748 mmHg 90%
22:00 +19°C° 0 mm 4 m/s 748 mmHg 93%
23:00 +18°C° 0 mm 4 m/s 748 mmHg 96%

26 Junho, Sábado

Tempo Temperatura Precipitação Vento Pressão Humidade
00:00 +17°C° 0 mm 4 m/s 748 mmHg 96%
01:00 +16°C° 0 mm 3 m/s 749 mmHg 96%
02:00 +14°C° 0 mm 3 m/s 749 mmHg 97%
03:00 +14°C° 0 mm 3 m/s 749 mmHg 96%
04:00 +14°C° 0 mm 3 m/s 749 mmHg 96%
05:00 +15°C° 0 mm 2 m/s 749 mmHg 96%
06:00 +16°C° 0 mm 3 m/s 750 mmHg 89%
07:00 +17°C° 0 mm 3 m/s 750 mmHg 83%
08:00 +19°C° 0 mm 4 m/s 750 mmHg 76%
09:00 +20°C° 0 mm 4 m/s 750 mmHg 71%
10:00 +22°C° 0 mm 4 m/s 750 mmHg 66%
11:00 +23°C° 0 mm 5 m/s 750 mmHg 60%
12:00 +25°C° 0 mm 5 m/s 750 mmHg 58%
13:00 +25°C° 0 mm 4 m/s 750 mmHg 57%
14:00 +26°C° 0 mm 4 m/s 750 mmHg 55%
15:00 +25°C° 0 mm 4 m/s 750 mmHg 58%
16:00 +25°C° 0 mm 4 m/s 750 mmHg 60%
17:00 +24°C° 0 mm 3 m/s 750 mmHg 63%
18:00 +24°C° 0 mm 3 m/s 750 mmHg 68%
19:00 +23°C° 0 mm 2 m/s 750 mmHg 73%
20:00 +21°C° 0 mm 2 m/s 750 mmHg 78%
21:00 +19°C° 0 mm 2 m/s 750 mmHg 82%
22:00 +18°C° 0 mm 2 m/s 750 mmHg 86%
23:00 +17°C° 0 mm 2 m/s 750 mmHg 89%

27 Junho, Domingo

Tempo Temperatura Precipitação Vento Pressão Humidade
00:00 +18°C° 0 mm 1 m/s 751 mmHg 90%
01:00 +18°C° 0 mm 1 m/s 751 mmHg 91%
02:00 +16°C° 0 mm 1 m/s 751 mmHg 92%
03:00 +16°C° 0 mm 1 m/s 751 mmHg 92%
04:00 +16°C° 0 mm 1 m/s 751 mmHg 91%
05:00 +16°C° 0 mm 1 m/s 751 mmHg 91%
06:00 +19°C° 0 mm 1 m/s 751 mmHg 87%
07:00 +20°C° 0 mm 1 m/s 751 mmHg 82%
08:00 +21°C° 0 mm 1 m/s 751 mmHg 77%
09:00 +22°C° 0 mm 1 m/s 751 mmHg 74%
10:00 +23°C° 0 mm 1 m/s 751 mmHg 70%
11:00 +24°C° 0 mm 1 m/s 751 mmHg 67%
12:00 +24°C° 0 mm 1 m/s 751 mmHg 66%
13:00 +24°C° 0 mm 1 m/s 751 mmHg 65%
14:00 +25°C° 0 mm 1 m/s 751 mmHg 64%
15:00 +24°C° 0.3 mm 1 m/s 751 mmHg 69%
16:00 +23°C° 0.3 mm 1 m/s 751 mmHg 74%
17:00 +23°C° 0.3 mm 1 m/s 751 mmHg 79%
18:00 +22°C° 0.2 mm 1 m/s 751 mmHg 82%
19:00 +21°C° 0.2 mm 1 m/s 751 mmHg 85%
20:00 +21°C° 0.2 mm 1 m/s 751 mmHg 89%
21:00 +20°C° 0.1 mm 1 m/s 751 mmHg 90%
22:00 +19°C° 0.1 mm 2 m/s 751 mmHg 91%
23:00 +18°C° 0.1 mm 2 m/s 751 mmHg 92%
Mostrar mais

Necessitamos do seu Consentimento

A Meteoprog e os seus Fornecedores de Serviços podem armazenar e aceder a dados pessoais como cookies, identificadores do dispositivo ou outras tecnologias semelhantes existentes no seu dispositivo e processar estes dados para personalizar conteúdos e anúncios, assim como funcionalidades nas redes sociais e análise de tráfego.

  • Armazenar e/ou aceder a informações no seu dispositivo

    Os cookies, identificadores do dispositivo ou outras informações podem ser armazenados ou acedidos no seu dispositivo, para os fins acima indicados.

  • Anúncios e conteúdos personalizados, medição de anúncios e conteúdos, dados sobre o público-alvo e desenvolvimento de produtos

    Os anúncios e os conteúdos podem ser personalizados com base num perfil. Podem ser adicionados dados adicionais para uma maior personalização dos anúncios e dos conteúdos. A eficácia dos anúncios e dos conteúdos pode ser medida. Podem ser obtidas informações sobre o público que visualizou os anúncios e os conteúdos. Estes dados podem ser usados para desenvolver ou melhorar sistemas, softwares ou a experiência do utilizador.

Ao clicar em "Eu concordo”, permitirá o uso de cookies, identificadores do dispositivo e web beacons mencionados ou outras tecnologias semelhantes. As configurações do navegador do seu dispositivo podem ser alteradas.

Para certos fins, podem ser invocados interesses legítimos ao invés de consentimento. Pode ler mais informação sobre este assunto na nossa Política de Privacidade e Cookies.